Weather History for Racine, WI

Change the Weather History Date:

Sunday, May 12, 2013

  Actual Average Record
Temperature  
Mean Temperature 46 °F -  
Max Temperature 54 °F 61 °F 83 °F (1956)
Min Temperature 39 °F 44 °F 32 °F (1971)
Degree Days  
Heating Degree Days 20    
Moisture  
Dew Point 28 °F    
Average Humidity 52    
Maximum Humidity 70    
Minimum Humidity 35    
Precipitation  
Precipitation 0.00 in - - ()
Sea Level Pressure  
Sea Level Pressure 30.10 in    
Wind  
Wind Speed 10 mph (NW)    
Max Wind Speed 14 mph    
Max Gust Speed 22 mph    
Visibility 10 miles    
Events      
Averages and records for this station are not official NWS values.
T = Trace of Precipitation, MM = Missing Value Source: NWS Daily Summary

Daily Weather History Graph

Daily Weather History Graph

Search for Another Location

Airport:

Trip Planner

Search our weather history database for the weather conditions in past years. The results will help you decide how hot, cold, wet, or windy it might be!

Date:

Astronomy

May. 12, 2013 Rise Set
Actual Time 5:31 AM CDT 8:04 PM CDT
Civil Twilight 4:59 AM CDT 8:36 PM CDT
Nautical Twilight 4:19 AM CDT 9:16 PM CDT
Astronomical Twilight 3:34 AM CDT 10:02 PM CDT
Moon 7:25 AM CDT (5/12) 10:31 PM CDT (5/12)
Length of Visible Light 15h 36m
Length of Day
14h 32m
Waxing Crescent, 7% of the Moon is Illuminated
May 12
Waxing Crescent
May 17
First Quarter
May 24
Full
May 31
Last Quarter
Jun 8
New

Hourly Weather History & Observations

Time (CDT) Temp. Windchill Dew Point Humidity Pressure Visibility Wind Dir Wind Speed Gust Speed Precip Events Conditions
12:53 AM 46.0 °F 41.0 °F 28.0 °F 50% 30.04 in 10.0 mi NNW 10.4 mph 16.1 mph N/A   Overcast
1:53 AM 45.0 °F 38.5 °F 28.9 °F 53% 30.04 in 10.0 mi NW 13.8 mph 19.6 mph N/A   Overcast
2:53 AM 43.0 °F 38.2 °F 28.0 °F 56% 30.04 in 10.0 mi NW 8.1 mph - N/A   Clear
3:53 AM 42.1 °F 36.6 °F 26.1 °F 53% 30.05 in 10.0 mi NW 9.2 mph 19.6 mph N/A   Clear
4:53 AM 41.0 °F 34.7 °F 25.0 °F 53% 30.06 in 10.0 mi NW 10.4 mph 18.4 mph N/A   Clear
5:53 AM 39.9 °F 33.4 °F 25.0 °F 55% 30.08 in 10.0 mi NW 10.4 mph - N/A   Clear
6:53 AM 41.0 °F 35.2 °F 25.0 °F 53% 30.09 in 10.0 mi WNW 9.2 mph - N/A   Clear
7:53 AM 43.0 °F 36.8 °F 26.1 °F 51% 30.09 in 10.0 mi NW 11.5 mph 21.9 mph N/A   Clear
8:53 AM 45.0 °F 39.3 °F 26.1 °F 48% 30.10 in 10.0 mi NW 11.5 mph 17.3 mph N/A   Clear
9:53 AM 46.9 °F - 27.0 °F 46% 30.11 in 10.0 mi NW 9.2 mph 21.9 mph N/A   Partly Cloudy
10:53 AM 48.0 °F - 27.0 °F 44% 30.12 in 10.0 mi NW 10.4 mph - N/A   Mostly Cloudy
11:53 AM 48.9 °F - 27.0 °F 43% 30.12 in 10.0 mi WNW 12.7 mph - N/A   Mostly Cloudy
12:53 PM 51.1 °F - 26.1 °F 38% 30.12 in 10.0 mi NW 12.7 mph 20.7 mph N/A   Mostly Cloudy
1:53 PM 51.1 °F - 25.0 °F 36% 30.12 in 10.0 mi NNW 12.7 mph 21.9 mph N/A   Mostly Cloudy
2:53 PM 52.0 °F - 25.0 °F 35% 30.11 in 10.0 mi NW 10.4 mph - N/A   Mostly Cloudy
3:53 PM 51.1 °F - 30.9 °F 46% 30.11 in 10.0 mi SE 10.4 mph - N/A   Mostly Cloudy
4:53 PM 48.0 °F - 30.9 °F 52% 30.10 in 10.0 mi SE 11.5 mph - N/A   Mostly Cloudy
5:53 PM 46.9 °F - 30.0 °F 52% 30.10 in 10.0 mi SE 10.4 mph - N/A   Mostly Cloudy
6:53 PM 45.0 °F 40.1 °F 30.0 °F 56% 30.10 in 10.0 mi South 9.2 mph - N/A   Mostly Cloudy
7:53 PM 45.0 °F 39.7 °F 32.0 °F 60% 30.10 in 10.0 mi South 10.4 mph - N/A   Overcast
8:53 PM 43.0 °F 38.2 °F 32.0 °F 65% 30.11 in 10.0 mi South 8.1 mph - N/A   Overcast
9:53 PM 43.0 °F 38.8 °F 32.0 °F 65% 30.12 in 10.0 mi South 6.9 mph - N/A   Overcast
10:53 PM 43.0 °F 38.8 °F 32.0 °F 65% 30.13 in 10.0 mi ENE 6.9 mph - N/A   Overcast
11:53 PM 42.1 °F 37.1 °F 33.1 °F 70% 30.14 in 10.0 mi East 8.1 mph - N/A   Clear